Time,TemperatureF,DewpointF,PressureIn,WindDirection,WindDirectionDegrees,WindSpeedMPH,WindSpeedGustMPH,Humidity,HourlyPrecipIn,Conditions,Clouds,dailyrainin,SoftwareType,DateUTC
2013-01-10 00:00:00,48.6,44.3,30.37,NW,324,0.0,-999.0,85,0.00,,,0.00,Wunderground v.1.15,2013-01-10 05:00:00,
2013-01-10 00:01:00,48.6,44.3,30.37,NW,324,0.0,-999.0,85,0.00,,,0.00,Wunderground v.1.15,2013-01-10 05:01:00,
2013-01-10 00:02:00,48.5,44.2,30.37,NW,324,0.0,-999.0,85,0.00,,,0.00,Wunderground v.1.15,2013-01-10 05:02:00,
2013-01-10 00:07:00,48.1,43.8,30.37,NW,324,0.0,-999.0,85,0.00,,,0.00,Wunderground v.1.15,2013-01-10 05:07:00,
2013-01-10 00:13:00,47.7,43.7,30.37,NW,324,0.0,-999.0,86,0.00,,,0.00,Wunderground v.1.15,2013-01-10 05:13:00,
2013-01-10 00:19:00,47.8,44.1,30.38,NW,324,0.0,-999.0,87,0.00,,,0.00,Wunderground v.1.15,2013-01-10 05:19:00,
2013-01-10 00:24:00,48.2,44.2,30.38,NW,324,1.0,-999.0,86,0.00,,,0.00,Wunderground v.1.15,2013-01-10 05:24:00,
2013-01-10 00:29:00,48.4,43.8,30.38,North,355,2.0,-999.0,84,0.00,,,0.00,Wunderground v.1.15,2013-01-10 05:29:00,
2013-01-10 00:34:00,48.2,43.6,30.38,North,355,0.0,-999.0,84,0.00,,,0.00,Wunderground v.1.15,2013-01-10 05:34:00,
2013-01-10 00:40:00,47.7,43.4,30.38,North,355,0.0,-999.0,85,0.00,,,0.00,Wunderground v.1.15,2013-01-10 05:40:00,
2013-01-10 00:46:00,47.7,43.4,30.38,North,355,0.0,-999.0,85,0.00,,,0.00,Wunderground v.1.15,2013-01-10 05:46:00,
2013-01-10 00:52:00,47.9,43.3,30.39,North,355,1.0,-999.0,84,0.00,,,0.00,Wunderground v.1.15,2013-01-10 05:52:00,
2013-01-10 00:58:00,47.7,43.1,30.38,North,355,0.0,-999.0,84,0.00,,,0.00,Wunderground v.1.15,2013-01-10 05:58:00,
2013-01-10 01:03:00,47.5,42.9,30.39,North,355,0.0,-999.0,84,0.00,,,0.00,Wunderground v.1.15,2013-01-10 06:03:00,
2013-01-10 01:08:00,47.7,42.8,30.38,North,355,1.0,-999.0,83,0.00,,,0.00,Wunderground v.1.15,2013-01-10 06:08:00,
2013-01-10 01:13:00,47.9,42.7,30.38,North,355,0.0,-999.0,82,0.00,,,0.00,Wunderground v.1.15,2013-01-10 06:13:00,
2013-01-10 01:19:00,47.4,42.5,30.39,North,355,0.0,-999.0,83,0.00,,,0.00,Wunderground v.1.15,2013-01-10 06:19:00,
2013-01-10 01:24:00,47.0,42.1,30.39,North,355,0.0,-999.0,83,0.00,,,0.00,Wunderground v.1.15,2013-01-10 06:24:00,
2013-01-10 01:29:00,46.9,41.1,30.39,North,360,4.0,-999.0,80,0.00,,,0.00,Wunderground v.1.15,2013-01-10 06:29:00,
2013-01-10 01:35:00,47.8,40.6,30.39,NNW,331,0.0,-999.0,76,0.00,,,0.00,Wunderground v.1.15,2013-01-10 06:35:00,
2013-01-10 01:40:00,48.0,40.8,30.39,NNW,331,0.0,-999.0,76,0.00,,,0.00,Wunderground v.1.15,2013-01-10 06:40:00,
2013-01-10 01:46:00,47.9,40.0,30.39,NNW,332,0.0,-999.0,74,0.00,,,0.00,Wunderground v.1.15,2013-01-10 06:46:00,
2013-01-10 01:51:00,47.5,40.6,30.39,NNW,333,0.0,-999.0,77,0.00,,,0.00,Wunderground v.1.15,2013-01-10 06:51:00,
2013-01-10 01:57:00,46.4,39.9,30.39,NNW,331,0.0,-999.0,78,0.00,,,0.00,Wunderground v.1.15,2013-01-10 06:57:00,
2013-01-10 02:02:00,46.3,39.5,30.39,NNW,331,0.0,-999.0,77,0.00,,,0.00,Wunderground v.1.15,2013-01-10 07:02:00,
2013-01-10 02:07:00,46.6,39.1,30.39,NNW,331,0.0,-999.0,75,0.00,,,0.00,Wunderground v.1.15,2013-01-10 07:07:00,
2013-01-10 02:12:00,46.6,39.1,30.40,NNW,331,0.0,-999.0,75,0.00,,,0.00,Wunderground v.1.15,2013-01-10 07:12:00,
2013-01-10 02:17:00,46.3,39.1,30.40,NNW,331,0.0,-999.0,76,0.00,,,0.00,Wunderground v.1.15,2013-01-10 07:17:00,
2013-01-10 02:22:00,45.4,38.3,30.41,NNW,331,0.0,-999.0,76,0.00,,,0.00,Wunderground v.1.15,2013-01-10 07:22:00,
2013-01-10 02:27:00,44.9,37.5,30.41,NNW,331,0.0,-999.0,75,0.00,,,0.00,Wunderground v.1.15,2013-01-10 07:27:00,
2013-01-10 02:32:00,44.6,37.5,30.41,NNW,331,0.0,-999.0,76,0.00,,,0.00,Wunderground v.1.15,2013-01-10 07:32:00,
2013-01-10 02:38:00,43.8,37.1,30.41,NNW,331,0.0,-999.0,77,0.00,,,0.00,Wunderground v.1.15,2013-01-10 07:38:00,
2013-01-10 02:43:00,43.1,37.0,30.42,NNW,330,0.0,-999.0,79,0.00,,,0.00,Wunderground v.1.15,2013-01-10 07:43:00,
2013-01-10 02:48:00,42.6,36.9,30.42,NNW,331,0.0,-999.0,80,0.00,,,0.00,Wunderground v.1.15,2013-01-10 07:48:00,
2013-01-10 02:53:00,42.0,36.9,30.42,NNW,331,0.0,-999.0,82,0.00,,,0.00,Wunderground v.1.15,2013-01-10 07:53:00,
2013-01-10 02:58:00,41.8,37.3,30.42,NNW,331,0.0,-999.0,84,0.00,,,0.00,Wunderground v.1.15,2013-01-10 07:58:00,
2013-01-10 03:03:00,41.9,36.8,30.42,NNW,333,0.0,-999.0,82,0.00,,,0.00,Wunderground v.1.15,2013-01-10 08:03:00,
2013-01-10 03:08:00,40.8,35.7,30.43,NNW,333,0.0,-999.0,82,0.00,,,0.00,Wunderground v.1.15,2013-01-10 08:08:00,
2013-01-10 03:13:00,39.8,35.7,30.43,NNW,333,0.0,-999.0,85,0.00,,,0.00,Wunderground v.1.15,2013-01-10 08:13:00,
2013-01-10 03:18:00,39.5,35.7,30.43,NNW,333,0.0,-999.0,86,0.00,,,0.00,Wunderground v.1.15,2013-01-10 08:18:00,
2013-01-10 03:24:00,39.2,35.4,30.42,NNW,333,0.0,-999.0,86,0.00,,,0.00,Wunderground v.1.15,2013-01-10 08:24:00,
2013-01-10 03:29:00,38.9,35.4,30.43,NNW,333,0.0,-999.0,87,0.00,,,0.00,Wunderground v.1.15,2013-01-10 08:29:00,
2013-01-10 03:34:00,39.0,35.5,30.43,NNW,333,0.0,-999.0,87,0.00,,,0.00,Wunderground v.1.15,2013-01-10 08:34:00,
2013-01-10 03:39:00,39.1,35.6,30.43,NNW,333,0.0,-999.0,87,0.00,,,0.00,Wunderground v.1.15,2013-01-10 08:39:00,
2013-01-10 03:44:00,38.6,34.8,30.43,NNW,333,0.0,-999.0,86,0.00,,,0.00,Wunderground v.1.15,2013-01-10 08:44:00,
2013-01-10 03:49:00,38.2,34.7,30.43,NNW,333,0.0,-999.0,87,0.00,,,0.00,Wunderground v.1.15,2013-01-10 08:49:00,
2013-01-10 03:54:00,37.8,34.3,30.44,NNW,333,0.0,-999.0,87,0.00,,,0.00,Wunderground v.1.15,2013-01-10 08:54:00,
2013-01-10 03:59:00,37.9,34.4,30.44,NNW,333,1.0,-999.0,87,0.00,,,0.00,Wunderground v.1.15,2013-01-10 08:59:00,
2013-01-10 04:05:00,38.0,33.9,30.44,NNW,333,0.0,-999.0,85,0.00,,,0.00,Wunderground v.1.15,2013-01-10 09:05:00,
2013-01-10 04:10:00,38.0,33.9,30.43,NNW,333,0.0,-999.0,85,0.00,,,0.00,Wunderground v.1.15,2013-01-10 09:10:00,
2013-01-10 04:15:00,37.3,32.9,30.43,NNW,333,0.0,-999.0,84,0.00,,,0.00,Wunderground v.1.15,2013-01-10 09:15:00,
2013-01-10 04:21:00,36.5,32.7,30.43,NNW,333,0.0,-999.0,86,0.00,,,0.00,Wunderground v.1.15,2013-01-10 09:21:00,
2013-01-10 04:26:00,35.9,32.7,30.44,NNW,333,0.0,-999.0,88,0.00,,,0.00,Wunderground v.1.15,2013-01-10 09:26:00,
2013-01-10 04:31:00,35.6,32.7,30.44,NNW,333,0.0,-999.0,89,0.00,,,0.00,Wunderground v.1.15,2013-01-10 09:31:00,
2013-01-10 04:36:00,35.6,32.7,30.44,NNW,333,0.0,-999.0,89,0.00,,,0.00,Wunderground v.1.15,2013-01-10 09:36:00,
2013-01-10 04:41:00,35.7,32.8,30.44,NNW,333,0.0,-999.0,89,0.00,,,0.00,Wunderground v.1.15,2013-01-10 09:41:00,
2013-01-10 04:46:00,35.4,32.2,30.44,NNW,333,1.0,-999.0,88,0.00,,,0.00,Wunderground v.1.15,2013-01-10 09:46:00,
2013-01-10 04:51:00,35.1,32.2,30.44,NNW,333,0.0,-999.0,89,0.00,,,0.00,Wunderground v.1.15,2013-01-10 09:51:00,
2013-01-10 04:56:00,35.2,32.3,30.44,NNW,333,0.0,-999.0,89,0.00,,,0.00,Wunderground v.1.15,2013-01-10 09:56:00,
2013-01-10 05:02:00,35.1,31.9,30.45,NNW,333,0.0,-999.0,88,0.00,,,0.00,Wunderground v.1.15,2013-01-10 10:02:00,
2013-01-10 05:07:00,34.9,31.7,30.44,NNW,333,1.0,-999.0,88,0.00,,,0.00,Wunderground v.1.15,2013-01-10 10:07:00,
2013-01-10 05:12:00,34.7,31.5,30.44,NNW,333,0.0,-999.0,88,0.00,,,0.00,Wunderground v.1.15,2013-01-10 10:12:00,
2013-01-10 05:17:00,34.4,31.2,30.44,NNW,333,0.0,-999.0,88,0.00,,,0.00,Wunderground v.1.15,2013-01-10 10:17:00,
2013-01-10 05:22:00,34.2,31.3,30.45,NNW,333,0.0,-999.0,89,0.00,,,0.00,Wunderground v.1.15,2013-01-10 10:22:00,
2013-01-10 05:27:00,34.4,31.2,30.45,NNW,333,0.0,-999.0,88,0.00,,,0.00,Wunderground v.1.15,2013-01-10 10:27:00,
2013-01-10 05:32:00,34.8,31.3,30.45,NNW,333,0.0,-999.0,87,0.00,,,0.00,Wunderground v.1.15,2013-01-10 10:32:00,
2013-01-10 05:37:00,35.5,31.7,30.46,NNW,333,0.0,-999.0,86,0.00,,,0.00,Wunderground v.1.15,2013-01-10 10:37:00,
2013-01-10 05:42:00,37.3,32.6,30.46,NNW,333,1.0,-999.0,83,0.00,,,0.00,Wunderground v.1.15,2013-01-10 10:42:00,
2013-01-10 05:48:00,40.0,32.4,30.46,NNW,333,0.0,-999.0,74,0.00,,,0.00,Wunderground v.1.15,2013-01-10 10:48:00,
2013-01-10 05:53:00,41.6,32.5,30.47,NNW,333,0.0,-999.0,70,0.00,,,0.00,Wunderground v.1.15,2013-01-10 10:53:00,
2013-01-10 05:58:00,42.5,32.3,30.47,NNW,333,0.0,-999.0,67,0.00,,,0.00,Wunderground v.1.15,2013-01-10 10:58:00,
2013-01-10 06:03:00,42.2,32.0,30.47,NNW,333,0.0,-999.0,67,0.00,,,0.00,Wunderground v.1.15,2013-01-10 11:03:00,
2013-01-10 06:08:00,42.4,31.5,30.48,NE,45,1.0,-999.0,65,0.00,,,0.00,Wunderground v.1.15,2013-01-10 11:08:00,
2013-01-10 06:13:00,43.2,31.8,30.47,NE,45,0.0,-999.0,64,0.00,,,0.00,Wunderground v.1.15,2013-01-10 11:13:00,
2013-01-10 06:18:00,42.9,31.9,30.48,NE,46,0.0,-999.0,65,0.00,,,0.00,Wunderground v.1.15,2013-01-10 11:18:00,
2013-01-10 06:23:00,41.4,31.3,30.48,NE,46,1.0,-999.0,67,0.00,,,0.00,Wunderground v.1.15,2013-01-10 11:23:00,
2013-01-10 06:28:00,41.2,31.1,30.48,NE,46,1.0,-999.0,67,0.00,,,0.00,Wunderground v.1.15,2013-01-10 11:28:00,
2013-01-10 06:33:00,42.1,31.6,30.48,NE,45,0.0,-999.0,66,0.00,,,0.00,Wunderground v.1.15,2013-01-10 11:33:00,
2013-01-10 06:39:00,41.1,31.0,30.49,NE,46,0.0,-999.0,67,0.00,,,0.00,Wunderground v.1.15,2013-01-10 11:39:00,
2013-01-10 06:44:00,39.1,30.5,30.49,NE,46,0.0,-999.0,71,0.00,,,0.00,Wunderground v.1.15,2013-01-10 11:44:00,
2013-01-10 06:49:00,37.5,30.3,30.49,NE,46,0.0,-999.0,75,0.00,,,0.00,Wunderground v.1.15,2013-01-10 11:49:00,
2013-01-10 06:54:00,37.0,30.1,30.50,NE,46,1.0,-999.0,76,0.00,,,0.00,Wunderground v.1.15,2013-01-10 11:54:00,
2013-01-10 06:59:00,36.2,29.7,30.50,NE,45,0.0,-999.0,77,0.00,,,0.00,Wunderground v.1.15,2013-01-10 11:59:00,
2013-01-10 07:04:00,35.4,29.2,30.50,NE,46,0.0,-999.0,78,0.00,,,0.00,Wunderground v.1.15,2013-01-10 12:04:00,
2013-01-10 07:09:00,34.9,29.0,30.51,NE,46,0.0,-999.0,79,0.00,,,0.00,Wunderground v.1.15,2013-01-10 12:09:00,
2013-01-10 07:14:00,34.8,29.0,30.51,NE,46,2.0,-999.0,79,0.00,,,0.00,Wunderground v.1.15,2013-01-10 12:14:00,
2013-01-10 07:19:00,34.9,29.4,30.51,NE,45,0.0,-999.0,80,0.00,,,0.00,Wunderground v.1.15,2013-01-10 12:19:00,
2013-01-10 07:25:00,36.3,30.4,30.51,NE,46,2.0,-999.0,79,0.00,,,0.00,Wunderground v.1.15,2013-01-10 12:25:00,
2013-01-10 07:30:00,38.0,30.8,30.52,NE,46,0.0,-999.0,75,0.00,,,0.00,Wunderground v.1.15,2013-01-10 12:30:00,
2013-01-10 07:35:00,36.4,29.6,30.52,NE,45,0.0,-999.0,76,0.00,,,0.00,Wunderground v.1.15,2013-01-10 12:35:00,
2013-01-10 07:40:00,35.7,29.8,30.51,NNE,32,2.0,-999.0,79,0.00,,,0.00,Wunderground v.1.15,2013-01-10 12:40:00,
2013-01-10 07:45:00,36.7,30.5,30.52,NNE,14,0.0,-999.0,78,0.00,,,0.00,Wunderground v.1.15,2013-01-10 12:45:00,
2013-01-10 07:50:00,37.7,30.5,30.52,NNE,14,0.0,-999.0,75,0.00,,,0.00,Wunderground v.1.15,2013-01-10 12:50:00,
2013-01-10 07:55:00,38.3,30.7,30.52,NNE,14,0.0,-999.0,74,0.00,,,0.00,Wunderground v.1.15,2013-01-10 12:55:00,
2013-01-10 08:00:00,39.1,31.2,30.53,NNE,14,0.0,-999.0,73,0.00,,,0.00,Wunderground v.1.15,2013-01-10 13:00:00,
2013-01-10 08:06:00,39.1,31.2,30.53,NNE,24,5.0,-999.0,73,0.00,,,0.00,Wunderground v.1.15,2013-01-10 13:06:00,
2013-01-10 08:11:00,39.9,31.6,30.53,NNE,20,1.0,-999.0,72,0.00,,,0.00,Wunderground v.1.15,2013-01-10 13:11:00,
2013-01-10 08:16:00,42.0,32.2,30.54,NE,40,2.0,-999.0,68,0.00,,,0.00,Wunderground v.1.15,2013-01-10 13:16:00,
2013-01-10 08:21:00,43.4,32.8,30.54,NNE,18,0.0,-999.0,66,0.00,,,0.00,Wunderground v.1.15,2013-01-10 13:21:00,
2013-01-10 08:26:00,44.0,32.6,30.54,NE,43,3.0,-999.0,64,0.00,,,0.00,Wunderground v.1.15,2013-01-10 13:26:00,
2013-01-10 08:31:00,44.7,32.9,30.54,NNE,31,2.0,-999.0,63,0.00,,,0.00,Wunderground v.1.15,2013-01-10 13:31:00,
2013-01-10 08:36:00,45.7,32.6,30.54,NNE,20,7.0,-999.0,60,0.00,,,0.00,Wunderground v.1.15,2013-01-10 13:36:00,
2013-01-10 08:41:00,46.3,32.7,30.55,North,360,4.0,-999.0,59,0.00,,,0.00,Wunderground v.1.15,2013-01-10 13:41:00,
2013-01-10 08:46:00,46.8,32.8,30.55,North,355,4.0,-999.0,58,0.00,,,0.00,Wunderground v.1.15,2013-01-10 13:46:00,
2013-01-10 08:52:00,47.2,32.7,30.55,North,355,5.0,-999.0,57,0.00,,,0.00,Wunderground v.1.15,2013-01-10 13:52:00,
2013-01-10 08:57:00,47.6,32.7,30.55,NE,37,5.0,-999.0,56,0.00,,,0.00,Wunderground v.1.15,2013-01-10 13:57:00,
2013-01-10 09:02:00,47.9,32.0,30.55,North,350,4.0,-999.0,54,0.00,,,0.00,Wunderground v.1.15,2013-01-10 14:02:00,
2013-01-10 09:07:00,48.1,32.2,30.55,NNW,348,7.0,-999.0,54,0.00,,,0.00,Wunderground v.1.15,2013-01-10 14:07:00,
2013-01-10 09:12:00,48.4,32.5,30.56,NNE,33,6.0,-999.0,54,0.00,,,0.00,Wunderground v.1.15,2013-01-10 14:12:00,
2013-01-10 09:17:00,48.6,32.7,30.55,NNE,17,7.0,-999.0,54,0.00,,,0.00,Wunderground v.1.15,2013-01-10 14:17:00,
2013-01-10 09:22:00,48.7,32.3,30.55,NE,37,5.0,-999.0,53,0.00,,,0.00,Wunderground v.1.15,2013-01-10 14:22:00,
2013-01-10 09:27:00,48.8,32.9,30.56,North,360,5.0,-999.0,54,0.00,,,0.00,Wunderground v.1.15,2013-01-10 14:27:00,
2013-01-10 09:32:00,49.0,32.6,30.56,NE,34,3.0,-999.0,53,0.00,,,0.00,Wunderground v.1.15,2013-01-10 14:32:00,
2013-01-10 09:37:00,49.2,32.8,30.56,NE,46,4.0,-999.0,53,0.00,,,0.00,Wunderground v.1.15,2013-01-10 14:37:00,
2013-01-10 09:42:00,49.3,32.9,30.56,NE,36,4.0,-999.0,53,0.00,,,0.00,Wunderground v.1.15,2013-01-10 14:42:00,
2013-01-10 09:47:00,49.5,32.6,30.56,NE,34,5.0,-999.0,52,0.00,,,0.00,Wunderground v.1.15,2013-01-10 14:47:00,
2013-01-10 09:53:00,49.7,33.2,30.56,NNW,344,3.0,-999.0,53,0.00,,,0.00,Wunderground v.1.15,2013-01-10 14:53:00,
2013-01-10 09:58:00,50.1,33.1,30.56,North,355,1.0,-999.0,52,0.00,,,0.00,Wunderground v.1.15,2013-01-10 14:58:00,
2013-01-10 10:03:00,50.3,32.8,30.56,North,11,4.0,-999.0,51,0.00,,,0.00,Wunderground v.1.15,2013-01-10 15:03:00,
2013-01-10 10:08:00,50.4,33.4,30.56,NNE,22,6.0,-999.0,52,0.00,,,0.00,Wunderground v.1.15,2013-01-10 15:08:00,
2013-01-10 10:13:00,50.6,32.6,30.56,NNW,339,10.0,-999.0,50,0.00,,,0.00,Wunderground v.1.15,2013-01-10 15:13:00,
2013-01-10 10:18:00,50.6,33.1,30.56,NNW,346,3.0,-999.0,51,0.00,,,0.00,Wunderground v.1.15,2013-01-10 15:18:00,
2013-01-10 10:23:00,50.6,33.1,30.56,NNE,12,5.0,-999.0,51,0.00,,,0.00,Wunderground v.1.15,2013-01-10 15:23:00,
2013-01-10 10:28:00,50.9,33.9,30.56,NNW,338,2.0,-999.0,52,0.00,,,0.00,Wunderground v.1.15,2013-01-10 15:28:00,
2013-01-10 10:33:00,51.1,33.6,30.56,NNE,30,6.0,-999.0,51,0.00,,,0.00,Wunderground v.1.15,2013-01-10 15:33:00,
2013-01-10 10:39:00,51.2,33.2,30.56,NNE,28,2.0,-999.0,50,0.00,,,0.00,Wunderground v.1.15,2013-01-10 15:39:00,
2013-01-10 10:44:00,51.3,33.3,30.56,NW,311,4.0,-999.0,50,0.00,,,0.00,Wunderground v.1.15,2013-01-10 15:44:00,
2013-01-10 10:49:00,51.6,34.0,30.56,North,355,2.0,-999.0,51,0.00,,,0.00,Wunderground v.1.15,2013-01-10 15:49:00,
2013-01-10 10:54:00,51.9,33.8,30.56,NE,37,1.0,-999.0,50,0.00,,,0.00,Wunderground v.1.15,2013-01-10 15:54:00,
2013-01-10 11:00:00,51.9,33.8,30.56,NE,37,5.0,-999.0,50,0.00,,,0.00,Wunderground v.1.15,2013-01-10 16:00:00,
2013-01-10 11:05:00,52.2,33.6,30.56,NNE,15,3.0,-999.0,49,0.00,,,0.00,Wunderground v.1.15,2013-01-10 16:05:00,
2013-01-10 11:10:00,52.5,33.9,30.55,NE,51,4.0,-999.0,49,0.00,,,0.00,Wunderground v.1.15,2013-01-10 16:10:00,
2013-01-10 11:15:00,52.6,33.5,30.55,ENE,58,4.0,-999.0,48,0.00,,,0.00,Wunderground v.1.15,2013-01-10 16:15:00,
2013-01-10 11:20:00,52.6,32.9,30.55,NNW,330,3.0,-999.0,47,0.00,,,0.00,Wunderground v.1.15,2013-01-10 16:20:00,
2013-01-10 11:26:00,52.7,33.0,30.54,NNE,15,2.0,-999.0,47,0.00,,,0.00,Wunderground v.1.15,2013-01-10 16:26:00,
2013-01-10 11:30:00,52.9,33.7,30.54,ENE,65,4.0,-999.0,48,0.00,,,0.00,Wunderground v.1.15,2013-01-10 16:30:00,
2013-01-10 11:36:00,53.3,34.6,30.54,NNE,18,0.0,-999.0,49,0.00,,,0.00,Wunderground v.1.15,2013-01-10 16:36:00,
2013-01-10 11:41:00,54.0,33.7,30.53,North,360,0.0,-999.0,46,0.00,,,0.00,Wunderground v.1.15,2013-01-10 16:41:00,
2013-01-10 11:46:00,54.1,34.3,30.53,SW,218,0.0,-999.0,47,0.00,,,0.00,Wunderground v.1.15,2013-01-10 16:46:00,
2013-01-10 11:51:00,54.1,33.8,30.53,NE,39,0.0,-999.0,46,0.00,,,0.00,Wunderground v.1.15,2013-01-10 16:51:00,
2013-01-10 11:56:00,54.1,33.8,30.53,NNE,29,2.0,-999.0,46,0.00,,,0.00,Wunderground v.1.15,2013-01-10 16:56:00,
2013-01-10 12:01:00,54.0,33.1,30.52,North,355,2.0,-999.0,45,0.00,,,0.00,Wunderground v.1.15,2013-01-10 17:01:00,
2013-01-10 12:06:00,53.9,32.5,30.52,NNW,331,3.0,-999.0,44,0.00,,,0.00,Wunderground v.1.15,2013-01-10 17:06:00,
2013-01-10 12:11:00,53.9,33.0,30.51,NE,36,4.0,-999.0,45,0.00,,,0.00,Wunderground v.1.15,2013-01-10 17:11:00,
2013-01-10 12:16:00,54.0,33.1,30.51,NNE,32,3.0,-999.0,45,0.00,,,0.00,Wunderground v.1.15,2013-01-10 17:16:00,
2013-01-10 12:21:00,54.3,33.4,30.51,ENE,57,5.0,-999.0,45,0.00,,,0.00,Wunderground v.1.15,2013-01-10 17:21:00,
2013-01-10 12:26:00,54.5,33.6,30.50,NNW,346,4.0,-999.0,45,0.00,,,0.00,Wunderground v.1.15,2013-01-10 17:26:00,
2013-01-10 12:32:00,54.7,33.2,30.50,NE,35,5.0,-999.0,44,0.00,,,0.00,Wunderground v.1.15,2013-01-10 17:32:00,
2013-01-10 12:37:00,54.9,33.4,30.50,North,360,0.0,-999.0,44,0.00,,,0.00,Wunderground v.1.15,2013-01-10 17:37:00,
2013-01-10 12:42:00,55.2,33.1,30.50,North,5,9.0,-999.0,43,0.00,,,0.00,Wunderground v.1.15,2013-01-10 17:42:00,
2013-01-10 12:47:00,55.4,32.7,30.50,NNE,19,10.0,-999.0,42,0.00,,,0.00,Wunderground v.1.15,2013-01-10 17:47:00,
2013-01-10 12:52:00,55.2,33.1,30.50,NNW,336,6.0,-999.0,43,0.00,,,0.00,Wunderground v.1.15,2013-01-10 17:52:00,
2013-01-10 12:57:00,54.9,32.2,30.50,NNW,333,4.0,-999.0,42,0.00,,,0.00,Wunderground v.1.15,2013-01-10 17:57:00,
2013-01-10 13:02:00,54.8,32.7,30.50,NNW,337,0.0,-999.0,43,0.00,,,0.00,Wunderground v.1.15,2013-01-10 18:02:00,
2013-01-10 13:07:00,55.3,33.2,30.50,North,360,4.0,-999.0,43,0.00,,,0.00,Wunderground v.1.15,2013-01-10 18:07:00,
2013-01-10 13:13:00,55.7,31.7,30.50,NW,309,2.0,-999.0,40,0.00,,,0.00,Wunderground v.1.15,2013-01-10 18:13:00,
2013-01-10 13:18:00,55.5,32.2,30.50,North,360,4.0,-999.0,41,0.00,,,0.00,Wunderground v.1.15,2013-01-10 18:18:00,
2013-01-10 13:23:00,55.2,31.3,30.50,NNW,348,7.0,-999.0,40,0.00,,,0.00,Wunderground v.1.15,2013-01-10 18:23:00,
2013-01-10 13:28:00,55.0,31.1,30.50,NNW,348,3.0,-999.0,40,0.00,,,0.00,Wunderground v.1.15,2013-01-10 18:28:00,
2013-01-10 13:33:00,55.1,32.4,30.50,NNW,336,3.0,-999.0,42,0.00,,,0.00,Wunderground v.1.15,2013-01-10 18:33:00,
2013-01-10 13:38:00,55.6,31.6,30.50,NW,304,0.0,-999.0,40,0.00,,,0.00,Wunderground v.1.15,2013-01-10 18:38:00,
2013-01-10 13:43:00,55.9,30.6,30.50,NW,319,3.0,-999.0,38,0.00,,,0.00,Wunderground v.1.15,2013-01-10 18:43:00,
2013-01-10 13:48:00,56.0,31.4,30.50,North,5,1.0,-999.0,39,0.00,,,0.00,Wunderground v.1.15,2013-01-10 18:48:00,
2013-01-10 13:53:00,55.9,30.6,30.50,NNW,331,0.0,-999.0,38,0.00,,,0.00,Wunderground v.1.15,2013-01-10 18:53:00,
2013-01-10 13:58:00,55.9,31.9,30.50,NNE,23,0.0,-999.0,40,0.00,,,0.00,Wunderground v.1.15,2013-01-10 18:58:00,
2013-01-10 14:04:00,55.9,30.6,30.50,WNW,284,2.0,-999.0,38,0.00,,,0.00,Wunderground v.1.15,2013-01-10 19:04:00,
2013-01-10 14:09:00,55.6,31.6,30.50,NNE,13,1.0,-999.0,40,0.00,,,0.00,Wunderground v.1.15,2013-01-10 19:09:00,
2013-01-10 14:14:00,55.3,32.0,30.50,NE,56,4.0,-999.0,41,0.00,,,0.00,Wunderground v.1.15,2013-01-10 19:14:00,
2013-01-10 14:19:00,55.1,31.8,30.50,NE,55,0.0,-999.0,41,0.00,,,0.00,Wunderground v.1.15,2013-01-10 19:19:00,
2013-01-10 14:24:00,55.0,31.1,30.50,North,355,2.0,-999.0,40,0.00,,,0.00,Wunderground v.1.15,2013-01-10 19:24:00,
2013-01-10 14:29:00,55.0,31.7,30.49,ENE,59,3.0,-999.0,41,0.00,,,0.00,Wunderground v.1.15,2013-01-10 19:29:00,
2013-01-10 14:35:00,55.3,31.4,30.49,NE,49,0.0,-999.0,40,0.00,,,0.00,Wunderground v.1.15,2013-01-10 19:35:00,
2013-01-10 14:40:00,56.0,30.7,30.49,NE,56,1.0,-999.0,38,0.00,,,0.00,Wunderground v.1.15,2013-01-10 19:40:00,
2013-01-10 14:45:00,55.9,31.3,30.49,ENE,57,2.0,-999.0,39,0.00,,,0.00,Wunderground v.1.15,2013-01-10 19:45:00,
2013-01-10 14:50:00,55.6,30.4,30.49,NE,37,0.0,-999.0,38,0.00,,,0.00,Wunderground v.1.15,2013-01-10 19:50:00,
2013-01-10 14:55:00,55.2,30.7,30.49,NE,37,0.0,-999.0,39,0.00,,,0.00,Wunderground v.1.15,2013-01-10 19:55:00,
2013-01-10 15:01:00,54.8,30.3,30.49,NE,37,1.0,-999.0,39,0.00,,,0.00,Wunderground v.1.15,2013-01-10 20:01:00,
2013-01-10 15:06:00,54.5,31.3,30.49,NNE,32,1.0,-999.0,41,0.00,,,0.00,Wunderground v.1.15,2013-01-10 20:06:00,
2013-01-10 15:11:00,54.2,30.4,30.49,NNE,32,1.0,-999.0,40,0.00,,,0.00,Wunderground v.1.15,2013-01-10 20:11:00,
2013-01-10 15:16:00,54.2,30.4,30.49,NNE,19,2.0,-999.0,40,0.00,,,0.00,Wunderground v.1.15,2013-01-10 20:16:00,
2013-01-10 15:21:00,54.4,30.6,30.49,NNE,19,1.0,-999.0,40,0.00,,,0.00,Wunderground v.1.15,2013-01-10 20:21:00,
2013-01-10 15:26:00,54.9,30.4,30.49,NNE,32,1.0,-999.0,39,0.00,,,0.00,Wunderground v.1.15,2013-01-10 20:26:00,
2013-01-10 15:32:00,55.8,31.8,30.49,NNE,22,2.0,-999.0,40,0.00,,,0.00,Wunderground v.1.15,2013-01-10 20:32:00,
2013-01-10 15:37:00,56.4,29.7,30.49,NNE,30,4.0,-999.0,36,0.00,,,0.00,Wunderground v.1.15,2013-01-10 20:37:00,
2013-01-10 15:42:00,56.3,30.3,30.49,NE,36,1.0,-999.0,37,0.00,,,0.00,Wunderground v.1.15,2013-01-10 20:42:00,
2013-01-10 15:47:00,56.0,29.4,30.49,North,355,1.0,-999.0,36,0.00,,,0.00,Wunderground v.1.15,2013-01-10 20:47:00,
2013-01-10 15:52:00,55.6,29.7,30.49,East,84,0.0,-999.0,37,0.00,,,0.00,Wunderground v.1.15,2013-01-10 20:52:00,
2013-01-10 15:57:00,55.3,29.4,30.49,East,80,0.0,-999.0,37,0.00,,,0.00,Wunderground v.1.15,2013-01-10 20:57:00,
2013-01-10 16:02:00,55.0,31.1,30.49,East,80,0.0,-999.0,40,0.00,,,0.00,Wunderground v.1.15,2013-01-10 21:02:00,
2013-01-10 16:07:00,54.7,30.8,30.49,East,79,2.0,-999.0,40,0.00,,,0.00,Wunderground v.1.15,2013-01-10 21:07:00,
2013-01-10 16:13:00,54.5,31.9,30.49,East,80,0.0,-999.0,42,0.00,,,0.00,Wunderground v.1.15,2013-01-10 21:13:00,
2013-01-10 16:18:00,54.2,31.0,30.49,East,90,0.0,-999.0,41,0.00,,,0.00,Wunderground v.1.15,2013-01-10 21:18:00,
2013-01-10 16:23:00,54.1,31.5,30.49,East,86,0.0,-999.0,42,0.00,,,0.00,Wunderground v.1.15,2013-01-10 21:23:00,
2013-01-10 16:28:00,53.8,30.6,30.49,East,86,0.0,-999.0,41,0.00,,,0.00,Wunderground v.1.15,2013-01-10 21:28:00,
2013-01-10 16:33:00,53.6,30.4,30.50,East,86,0.0,-999.0,41,0.00,,,0.00,Wunderground v.1.15,2013-01-10 21:33:00,
2013-01-10 16:38:00,53.4,30.3,30.50,East,86,0.0,-999.0,41,0.00,,,0.00,Wunderground v.1.15,2013-01-10 21:38:00,
2013-01-10 16:44:00,53.3,30.2,30.49,East,86,0.0,-999.0,41,0.00,,,0.00,Wunderground v.1.15,2013-01-10 21:44:00,
2013-01-10 16:49:00,53.1,30.0,30.49,East,86,0.0,-999.0,41,0.00,,,0.00,Wunderground v.1.15,2013-01-10 21:49:00,
2013-01-10 16:54:00,53.0,29.3,30.49,East,86,0.0,-999.0,40,0.00,,,0.00,Wunderground v.1.15,2013-01-10 21:54:00,
2013-01-10 16:59:00,53.1,30.0,30.49,East,86,0.0,-999.0,41,0.00,,,0.00,Wunderground v.1.15,2013-01-10 21:59:00,
2013-01-10 17:04:00,52.8,29.7,30.49,East,86,0.0,-999.0,41,0.00,,,0.00,Wunderground v.1.15,2013-01-10 22:04:00,
2013-01-10 17:09:00,52.5,30.0,30.49,East,86,0.0,-999.0,42,0.00,,,0.00,Wunderground v.1.15,2013-01-10 22:09:00,
2013-01-10 17:14:00,52.2,30.4,30.48,East,86,0.0,-999.0,43,0.00,,,0.00,Wunderground v.1.15,2013-01-10 22:14:00,
2013-01-10 17:19:00,51.9,30.6,30.48,East,86,0.0,-999.0,44,0.00,,,0.00,Wunderground v.1.15,2013-01-10 22:19:00,
2013-01-10 17:24:00,51.5,29.7,30.48,East,86,0.0,-999.0,43,0.00,,,0.00,Wunderground v.1.15,2013-01-10 22:24:00,
2013-01-10 17:30:00,51.3,31.7,30.48,East,86,0.0,-999.0,47,0.00,,,0.00,Wunderground v.1.15,2013-01-10 22:30:00,
2013-01-10 17:35:00,50.8,30.7,30.48,East,86,0.0,-999.0,46,0.00,,,0.00,Wunderground v.1.15,2013-01-10 22:35:00,
2013-01-10 17:40:00,50.5,29.4,30.47,East,86,0.0,-999.0,44,0.00,,,0.00,Wunderground v.1.15,2013-01-10 22:40:00,
2013-01-10 17:45:00,50.3,31.3,30.48,East,86,0.0,-999.0,48,0.00,,,0.00,Wunderground v.1.15,2013-01-10 22:45:00,
2013-01-10 17:51:00,49.7,32.8,30.48,East,86,0.0,-999.0,52,0.00,,,0.00,Wunderground v.1.15,2013-01-10 22:51:00,
2013-01-10 17:56:00,49.2,35.0,30.48,East,86,0.0,-999.0,58,0.00,,,0.00,Wunderground v.1.15,2013-01-10 22:56:00,
2013-01-10 18:01:00,48.7,33.7,30.48,East,86,0.0,-999.0,56,0.00,,,0.00,Wunderground v.1.15,2013-01-10 23:01:00,
2013-01-10 18:06:00,48.3,32.4,30.48,East,86,0.0,-999.0,54,0.00,,,0.00,Wunderground v.1.15,2013-01-10 23:06:00,
2013-01-10 18:11:00,48.1,32.2,30.48,East,86,0.0,-999.0,54,0.00,,,0.00,Wunderground v.1.15,2013-01-10 23:11:00,
2013-01-10 18:16:00,48.1,30.8,30.48,East,86,0.0,-999.0,51,0.00,,,0.00,Wunderground v.1.15,2013-01-10 23:16:00,
2013-01-10 18:21:00,48.3,32.4,30.48,East,86,0.0,-999.0,54,0.00,,,0.00,Wunderground v.1.15,2013-01-10 23:21:00,
2013-01-10 18:26:00,48.1,34.0,30.49,East,86,0.0,-999.0,58,0.00,,,0.00,Wunderground v.1.15,2013-01-10 23:26:00,
2013-01-10 18:32:00,47.8,32.4,30.49,East,86,0.0,-999.0,55,0.00,,,0.00,Wunderground v.1.15,2013-01-10 23:32:00,
2013-01-10 18:37:00,47.8,30.5,30.49,East,86,1.0,-999.0,51,0.00,,,0.00,Wunderground v.1.15,2013-01-10 23:37:00,
2013-01-10 18:42:00,48.4,30.6,30.50,East,86,0.0,-999.0,50,0.00,,,0.00,Wunderground v.1.15,2013-01-10 23:42:00,
2013-01-10 18:47:00,48.6,31.8,30.50,East,86,0.0,-999.0,52,0.00,,,0.00,Wunderground v.1.15,2013-01-10 23:47:00,
2013-01-10 18:52:00,48.3,31.9,30.50,East,86,0.0,-999.0,53,0.00,,,0.00,Wunderground v.1.15,2013-01-10 23:52:00,
2013-01-10 18:57:00,47.9,32.5,30.50,East,86,0.0,-999.0,55,0.00,,,0.00,Wunderground v.1.15,2013-01-10 23:57:00,
2013-01-10 19:02:00,47.4,31.1,30.50,East,86,0.0,-999.0,53,0.00,,,0.00,Wunderground v.1.15,2013-01-11 00:02:00,
2013-01-10 19:07:00,47.4,31.1,30.50,East,86,0.0,-999.0,53,0.00,,,0.00,Wunderground v.1.15,2013-01-11 00:07:00,
2013-01-10 19:12:00,47.6,31.3,30.50,East,86,0.0,-999.0,53,0.00,,,0.00,Wunderground v.1.15,2013-01-11 00:12:00,
2013-01-10 19:18:00,47.9,32.0,30.50,East,86,0.0,-999.0,54,0.00,,,0.00,Wunderground v.1.15,2013-01-11 00:18:00,
2013-01-10 19:23:00,47.9,32.5,30.50,East,86,0.0,-999.0,55,0.00,,,0.00,Wunderground v.1.15,2013-01-11 00:23:00,
2013-01-10 19:28:00,47.8,32.4,30.50,East,86,0.0,-999.0,55,0.00,,,0.00,Wunderground v.1.15,2013-01-11 00:28:00,
2013-01-10 19:33:00,47.5,33.4,30.50,East,86,0.0,-999.0,58,0.00,,,0.00,Wunderground v.1.15,2013-01-11 00:33:00,
2013-01-10 19:38:00,47.2,33.2,30.50,East,86,0.0,-999.0,58,0.00,,,0.00,Wunderground v.1.15,2013-01-11 00:38:00,
2013-01-10 19:43:00,47.0,33.0,30.50,East,86,0.0,-999.0,58,0.00,,,0.00,Wunderground v.1.15,2013-01-11 00:43:00,
2013-01-10 19:48:00,46.9,33.3,30.50,East,86,1.0,-999.0,59,0.00,,,0.00,Wunderground v.1.15,2013-01-11 00:48:00,
2013-01-10 19:53:00,46.9,33.7,30.50,East,98,1.0,-999.0,60,0.00,,,0.00,Wunderground v.1.15,2013-01-11 00:53:00,
2013-01-10 19:59:00,46.6,33.9,30.50,ESE,103,0.0,-999.0,61,0.00,,,0.00,Wunderground v.1.15,2013-01-11 00:59:00,
2013-01-10 20:04:00,46.3,34.0,30.50,ESE,105,1.0,-999.0,62,0.00,,,0.00,Wunderground v.1.15,2013-01-11 01:04:00,
2013-01-10 20:09:00,46.1,34.2,30.50,ESE,104,0.0,-999.0,63,0.00,,,0.00,Wunderground v.1.15,2013-01-11 01:09:00,
2013-01-10 20:14:00,45.9,34.0,30.50,ESE,104,0.0,-999.0,63,0.00,,,0.00,Wunderground v.1.15,2013-01-11 01:14:00,
2013-01-10 20:19:00,45.8,33.9,30.50,ESE,104,0.0,-999.0,63,0.00,,,0.00,Wunderground v.1.15,2013-01-11 01:19:00,
2013-01-10 20:24:00,45.6,34.1,30.50,ESE,103,0.0,-999.0,64,0.00,,,0.00,Wunderground v.1.15,2013-01-11 01:24:00,
2013-01-10 20:30:00,45.5,34.0,30.50,ESE,103,1.0,-999.0,64,0.00,,,0.00,Wunderground v.1.15,2013-01-11 01:30:00,
2013-01-10 20:35:00,45.5,34.0,30.49,ESE,103,2.0,-999.0,64,0.00,,,0.00,Wunderground v.1.15,2013-01-11 01:35:00,
2013-01-10 20:40:00,45.5,34.0,30.49,ESE,103,1.0,-999.0,64,0.00,,,0.00,Wunderground v.1.15,2013-01-11 01:40:00,
2013-01-10 20:45:00,45.4,33.9,30.50,ESE,102,0.0,-999.0,64,0.00,,,0.00,Wunderground v.1.15,2013-01-11 01:45:00,
2013-01-10 20:50:00,45.2,33.7,30.50,ESE,103,0.0,-999.0,64,0.00,,,0.00,Wunderground v.1.15,2013-01-11 01:50:00,
2013-01-10 20:55:00,45.0,33.5,30.50,ESE,103,0.0,-999.0,64,0.00,,,0.00,Wunderground v.1.15,2013-01-11 01:55:00,
2013-01-10 21:01:00,44.7,33.3,30.50,ESE,102,0.0,-999.0,64,0.00,,,0.00,Wunderground v.1.15,2013-01-11 02:01:00,
2013-01-10 21:06:00,44.4,33.4,30.50,ESE,103,0.0,-999.0,65,0.00,,,0.00,Wunderground v.1.15,2013-01-11 02:06:00,
2013-01-10 21:11:00,44.1,33.5,30.50,ESE,103,0.0,-999.0,66,0.00,,,0.00,Wunderground v.1.15,2013-01-11 02:11:00,
2013-01-10 21:16:00,43.7,33.5,30.51,ESE,103,0.0,-999.0,67,0.00,,,0.00,Wunderground v.1.15,2013-01-11 02:16:00,
2013-01-10 21:21:00,43.3,33.1,30.50,ESE,103,0.0,-999.0,67,0.00,,,0.00,Wunderground v.1.15,2013-01-11 02:21:00,
2013-01-10 21:26:00,43.1,32.9,30.50,ESE,103,0.0,-999.0,67,0.00,,,0.00,Wunderground v.1.15,2013-01-11 02:26:00,
2013-01-10 21:31:00,43.2,33.0,30.50,ESE,103,0.0,-999.0,67,0.00,,,0.00,Wunderground v.1.15,2013-01-11 02:31:00,
2013-01-10 21:36:00,43.1,32.9,30.50,ESE,103,0.0,-999.0,67,0.00,,,0.00,Wunderground v.1.15,2013-01-11 02:36:00,
2013-01-10 21:41:00,42.9,32.7,30.50,ESE,103,0.0,-999.0,67,0.00,,,0.00,Wunderground v.1.15,2013-01-11 02:41:00,
2013-01-10 21:46:00,42.9,32.7,30.50,ESE,103,0.0,-999.0,67,0.00,,,0.00,Wunderground v.1.15,2013-01-11 02:46:00,
2013-01-10 21:51:00,42.9,32.7,30.50,ESE,102,0.0,-999.0,67,0.00,,,0.00,Wunderground v.1.15,2013-01-11 02:51:00,
2013-01-10 21:57:00,42.9,32.7,30.50,ESE,103,0.0,-999.0,67,0.00,,,0.00,Wunderground v.1.15,2013-01-11 02:57:00,
2013-01-10 22:02:00,42.8,32.6,30.50,ESE,103,0.0,-999.0,67,0.00,,,0.00,Wunderground v.1.15,2013-01-11 03:02:00,
2013-01-10 22:07:00,42.6,32.8,30.50,ESE,102,0.0,-999.0,68,0.00,,,0.00,Wunderground v.1.15,2013-01-11 03:07:00,
2013-01-10 22:12:00,42.4,32.6,30.49,ESE,103,0.0,-999.0,68,0.00,,,0.00,Wunderground v.1.15,2013-01-11 03:12:00,
2013-01-10 22:17:00,42.3,32.8,30.49,ESE,102,0.0,-999.0,69,0.00,,,0.00,Wunderground v.1.15,2013-01-11 03:17:00,
2013-01-10 22:22:00,42.5,33.0,30.49,ESE,103,0.0,-999.0,69,0.00,,,0.00,Wunderground v.1.15,2013-01-11 03:22:00,
2013-01-10 22:27:00,42.5,33.0,30.49,ESE,103,0.0,-999.0,69,0.00,,,0.00,Wunderground v.1.15,2013-01-11 03:27:00,
2013-01-10 22:32:00,42.6,33.1,30.49,ESE,102,0.0,-999.0,69,0.00,,,0.00,Wunderground v.1.15,2013-01-11 03:32:00,
2013-01-10 22:37:00,42.7,33.2,30.49,ESE,103,0.0,-999.0,69,0.00,,,0.00,Wunderground v.1.15,2013-01-11 03:37:00,
2013-01-10 22:42:00,42.8,33.3,30.49,ESE,103,1.0,-999.0,69,0.00,,,0.00,Wunderground v.1.15,2013-01-11 03:42:00,
2013-01-10 22:47:00,42.9,33.1,30.49,ESE,102,0.0,-999.0,68,0.00,,,0.00,Wunderground v.1.15,2013-01-11 03:47:00,
2013-01-10 22:52:00,43.0,33.2,30.49,ESE,103,0.0,-999.0,68,0.00,,,0.00,Wunderground v.1.15,2013-01-11 03:52:00,
2013-01-10 22:57:00,42.8,33.0,30.49,ESE,103,0.0,-999.0,68,0.00,,,0.00,Wunderground v.1.15,2013-01-11 03:57:00,
2013-01-10 23:03:00,42.7,32.9,30.49,ESE,103,0.0,-999.0,68,0.00,,,0.00,Wunderground v.1.15,2013-01-11 04:03:00,
2013-01-10 23:08:00,42.7,32.9,30.49,ESE,102,0.0,-999.0,68,0.00,,,0.00,Wunderground v.1.15,2013-01-11 04:08:00,
2013-01-10 23:13:00,42.5,32.7,30.49,ESE,103,0.0,-999.0,68,0.00,,,0.00,Wunderground v.1.15,2013-01-11 04:13:00,
2013-01-10 23:18:00,42.5,33.0,30.50,ESE,103,0.0,-999.0,69,0.00,,,0.00,Wunderground v.1.15,2013-01-11 04:18:00,
2013-01-10 23:23:00,42.4,32.9,30.49,ESE,103,0.0,-999.0,69,0.00,,,0.00,Wunderground v.1.15,2013-01-11 04:23:00,
2013-01-10 23:28:00,42.2,33.1,30.49,ESE,103,0.0,-999.0,70,0.00,,,0.00,Wunderground v.1.15,2013-01-11 04:28:00,
2013-01-10 23:33:00,42.1,33.0,30.49,ESE,103,0.0,-999.0,70,0.00,,,0.00,Wunderground v.1.15,2013-01-11 04:33:00,
2013-01-10 23:38:00,41.9,33.2,30.49,ESE,103,0.0,-999.0,71,0.00,,,0.00,Wunderground v.1.15,2013-01-11 04:38:00,
2013-01-10 23:43:00,41.8,33.4,30.49,ESE,103,0.0,-999.0,72,0.00,,,0.00,Wunderground v.1.15,2013-01-11 04:43:00,
2013-01-10 23:48:00,41.7,33.7,30.49,ESE,102,0.0,-999.0,73,0.00,,,0.00,Wunderground v.1.15,2013-01-11 04:48:00,
2013-01-10 23:53:00,41.6,33.6,30.49,ESE,103,0.0,-999.0,73,0.00,,,0.00,Wunderground v.1.15,2013-01-11 04:53:00,
2013-01-10 23:59:00,41.4,33.4,30.49,ESE,103,0.0,-999.0,73,0.00,,,0.00,Wunderground v.1.15,2013-01-11 04:59:00,